User: anonymous   Login
Location: Unspecified
(0.0000°N, 0.0000°E)
Time: 07:05:17
(UTC+00:00)
Language:

DNEPR OBJECT AD - Orbit

View from above orbital plane
View from above orbital plane
View from above satellite
View from above satellite

Ground track
Ground track

The orbit data is extracted from the following two-line orbital elements,

1 39443U 13066AD  18048.12441189 +.00001158 +00000-0 +11132-3 0  9996
2 39443 097.6258 112.1046 0026040 115.7089 244.6824 14.94677680228914
Epoch (UTC): 17 February 2018 02:59:09
Eccentricity: 0.0026040
inclination: 97.6258°
perigee height: 565 km
apogee height: 601 km
right ascension of ascending node: 112.1046°
argument of perigee: 115.7089°
revolutions per day: 14.94677680
mean anomaly at epoch: 244.6824°
orbit number at epoch: 22891

The dashed part of the orbit path shows where the satellite is in the earth's shadow,  

DLR